This is the latest recevied weather packets stored in our database for station/object N5YHM-13. If no packets are shown the sender has not sent any weather packets the latest 10 day(s).
| Time | Temp. | Humidity | Pressure | Rain* | Wind** | Luminosity | Snow |
|---|---|---|---|---|---|---|---|
| 1777859760 | 16.67° C | 82% | 1020 hPa | 0 mm | - | 0 W/m² | - |
| 1777859455 | 16.67° C | 81% | 1020.1 hPa | 0 mm | - | 0 W/m² | - |
| 1777859152 | 17.22° C | 80% | 1020.2 hPa | 0 mm | - | 0 W/m² | - |
| 1777858844 | 17.22° C | 79% | 1020.1 hPa | 0 mm | - | 0 W/m² | - |
| 1777858541 | 17.22° C | 79% | 1020.2 hPa | 0 mm | - | 0 W/m² | - |
| 1777858238 | 17.78° C | 78% | 1019.9 hPa | 0 mm | - | 0 W/m² | - |
| 1777857935 | 17.78° C | 78% | 1020.1 hPa | 0 mm | - | 0 W/m² | - |
| 1777857627 | 17.78° C | 77% | 1020 hPa | 0 mm | - | 0 W/m² | - |
| 1777857323 | 17.78° C | 76% | 1020.1 hPa | 0 mm | - | 0 W/m² | - |
| 1777857020 | 18.33° C | 74% | 1019.8 hPa | 0 mm | - | 0 W/m² | - |
| 1777856715 | 18.33° C | 74% | 1019.9 hPa | 0 mm | - | 0 W/m² | - |
| 1777856412 | 18.33° C | 73% | 1019.7 hPa | 0 mm | - | 0 W/m² | - |
| 1777856109 | 18.89° C | 72% | 1019.7 hPa | 0 mm | - | 0 W/m² | - |
| 1777855806 | 18.89° C | 72% | 1019.8 hPa | 0 mm | - | 0 W/m² | - |
| 1777855504 | 19.44° C | 69% | 1020 hPa | 0 mm | - | 0 W/m² | - |
| 1777855200 | 19.44° C | 70% | 1019.8 hPa | 0 mm | - | 0 W/m² | - |
| 1777854896 | 19.44° C | 68% | 1019.7 hPa | 0 mm | - | 0 W/m² | - |
| 1777854594 | 20° C | 67% | 1019.5 hPa | 0 mm | - | 1 W/m² | - |
| 1777854291 | 20° C | 66% | 1019.7 hPa | 0 mm | - | 1 W/m² | - |
| 1777853988 | 20.56° C | 64% | 1019.6 hPa | 0 mm | - | 1 W/m² | - |
| 1777853685 | 20.56° C | 62% | 1019.8 hPa | 0 mm | - | 1 W/m² | - |
| 1777853381 | 21.11° C | 61% | 1019.8 hPa | 0 mm | - | 2 W/m² | - |
| 1777853079 | 21.11° C | 56% | 1019.6 hPa | 0 mm | - | 2 W/m² | - |
| 1777852776 | 21.67° C | 58% | 1019.6 hPa | 0 mm | - | 2 W/m² | - |
| 1777852474 | 21.67° C | 54% | 1019.6 hPa | 0 mm | - | 2 W/m² | - |
* Rain latest hour (hover to see other rain measurements)
** Current wind speed in m/s (hover to see current wind gust speed)